Location: Newark
(47.5833°N, 8.1500°E)
Time: 17:56:44
(UTC+00:00)

Transit 2A - Pass Details

Date: 01 November 2020
Orbit: 595 x 964 km, 66.7° (Epoch: 29 November)

Event Time Altitude Azimuth Distance (km) Brightness Sun altitude
Rises 22:43:42 0° 188° (S) 3,617 - -56.7°
Reaches altitude 10° 22:46:23 10° 182° (S) 2,689 - -56.8°
Maximum altitude 22:52:16 42° 114° (ESE) 1,346 - -57.0°
Drops below altitude 10° 22:58:05 10° 46° (NE) 2,653 - -57.1°
Sets 23:00:42 0° 39° (NE) 3,564 - -57.2°
